TIME,DELAY(SENSOR),PRES,OXYGEN,RAWTEMP,T(OPTODE),TCPHASE,FLUOR,BETA(BETA700),BETA(BETA412),BETA(BETA440),CDOM,C(CSC),ED(ED412.40),ED(ED444.00),ED(ED489.70),ED(ED554.30),LU(LU411.80),LU(LU443.40),LU(LU489.60),LU(LU554.10),COMP,TILTX,TILTY,CHECK
1341207581,5806,872.7000122070312000,43.3562507629394500,662.0213012695312000,4.5614051818847660,54.5230903625488300,52,101,88,79,81,15391,2147756800,2147422016,2148006674,2147874404,2147639954,2147063689,2148260763,2147202880,2253,4,13,4393
1341211177,5810,946.2199707031250000,47.3886108398437500,671.1378784179688000,4.2606010437011720,54.0530509948730500,53,100,88,79,82,15398,2147758884,2147423424,2148008493,2147876224,2147644022,2147060379,2148259291,2147200356,2838,5,13,40934
1341214777,5809,973.1900024414062000,48.2085609436035160,672.7274780273438000,4.2080550193786620,53.9534492492675800,52,99,88,79,82,15398,2147763126,2147422720,2148008374,2147876708,2147646445,2147068809,2148258331,2147197558,3588,4,13,1145
1341218377,5811,986.2600097656250000,47.5824394226074200,672.6516723632812000,4.2105622291564940,54.0437316894531250,52,99,88,79,82,15398,2147766080,2147423378,2148010185,2147876516,2147645074,2147064164,2148260068,2147202550,362,4,13,12252
1341221977,5808,985.3599853515625000,47.4157905578613300,672.3248291015625000,4.2213711738586430,54.0578918457031250,53,98,86,80,82,15398,2147759222,2147421723,2148006701,2147879771,2147643465,2147066038,2148262354,2147204269,3559,4,13,63148
1341225577,5809,994.5399780273438000,47.1132888793945300,671.8394775390625000,4.2374110221862790,54.0956916809082000,53,98,85,78,82,15397,2147760612,2147420672,2148009673,2147872201,2147642569,2147058432,2148257088,2147202148,191,4,13,55155
1341229177,5809,997.7100219726562000,47.0777893066406250,671.3560791015625000,4.2533888816833500,54.0927810668945300,52,99,86,79,81,15395,2147760603,2147420891,2148011264,2147878226,2147641462,2147058358,2148262116,2147198025,424,5,13,62816
1341232777,5806,993.2700195312500000,46.6572494506835940,671.3665771484375000,4.2530422210693360,54.1557388305664060,53,99,87,80,82,15395,2147756626,2147420937,2148005796,2147879963,2147644845,2147062061,2148257444,2147200612,624,4,13,13847
1341236377,5809,987.9600219726562000,47.1125297546386700,673.2340087890625000,4.1913070678710940,54.1095695495605500,53,99,90,80,83,15396,2147760082,2147420169,2148008347,2147875392,2147641453,2147059181,2148256438,2147200210,3338,5,13,39763
1341239977,5806,990.7100219726562000,47.2285804748535160,673.7952880859375000,4.1727409362792970,54.1041297912597660,53,99,89,79,81,15397,2147763885,2147421778,2148007387,2147876123,2147644900,2147061321,2148261878,2147199451,3564,4,13,8906
1341243577,5810,992.4600219726562000,47.6074485778808600,674.1832885742188000,4.1599059104919430,54.0552101135253900,53,98,88,79,83,15399,2147758665,2147421714,2148009362,2147873782,2147643648,2147060096,2148258569,2147200512,100,4,13,5919
1341247177,5806,997.7899780273438000,47.6981086730957000,674.4467163085938000,4.1511940956115720,54.0491981506347660,52,97,88,80,84,15397,2147761974,2147419172,2148005979,2147876452,2147643428,2147060498,2148261577,2147203035,3250,4,13,20593
1341250777,5805,985.9600219726562000,47.4540901184082000,674.9229125976562000,4.1354408264160160,54.0892105102539060,53,99,86,78,83,15396,2147758893,2147419456,2148008484,2147874230,2147647780,2147062052,2148261046,2147198400,304,4,13,41273
1341254377,5808,992.7199707031250000,47.5363311767578100,674.6735839843750000,4.1436882019042970,54.0691986083984400,53,102,90,79,82,15396,2147759350,2147423021,2148010203,2147875602,2147645330,2147056859,2148258432,2147199853,3431,5,13,27900
1341257977,5807,997.0900268554688000,47.2856407165527340,674.1818237304688000,4.1599597930908200,54.1017608642578100,53,99,88,80,82,15393,2147761810,2147423981,2148007158,2147877293,2147646555,2147059986,2148258002,2147200054,3295,4,13,42017
1341261577,5810,998.8099975585938000,47.3893089294433600,674.0482788085938000,4.1643710136413570,54.0847816467285160,53,97,83,79,83,15382,2147759680,2147423058,2148008064,2147876032,2147646701,2147061092,2148261284,2147202432,3354,4,13,57171
1341265177,5810,996.8300170898438000,47.0313796997070300,673.7282714843750000,4.1749591827392580,54.1294288635253900,54,97,91,79,82,15392,2147762176,2147422582,2148005513,2147873645,2147643465,2147057819,2148259364,2147202880,169,5,13,16847
1341268777,5810,1007.5399780273438000,46.6427383422851560,673.4943847656250000,4.1826930046081540,54.1846809387207000,52,99,91,79,82,15392,2147763547,2147421540,2148005540,2147876141,2147642834,2147058294,2148261001,2147199542,510,4,13,51041
1341272377,5809,1014.4000244140625000,46.9252014160156250,673.1021728515625000,4.1956648826599120,54.1339416503906250,52,100,89,80,83,15386,2147760256,2147419629,2148007424,2147874861,2147644178,2147062628,2148256109,2147200795,500,4,13,40036
1341275977,5811,1008.0300292968750000,46.4595298767089840,672.4088745117188000,4.2185897827148440,54.1947517395019500,53,99,88,79,83,15390,2147759533,2147424448,2148010697,2147875986,2147644507,2147056685,2148260187,2147201737,395,4,13,102
1341279577,5812,1011.5800170898438000,46.4731483459472660,672.2476806640625000,4.2239170074462890,54.1951293945312500,53,108,89,79,81,15386,2147759652,2147422464,2148007277,2147872502,2147644553,2147064091,2148262189,2147196434,146,4,13,1518
1341283177,5810,1002.4400024414062000,46.5256309509277340,672.4146728515625000,4.2183990478515625,54.1885414123535160,52,101,87,81,82,15388,2147759552,2147420598,2148008320,2147875382,2147643044,2147060434,2148258651,2147203236,331,4,13,43286
1341286777,5805,996.5000000000000000,46.6164093017578100,673.7175292968750000,4.1753158569335940,54.1877899169921900,52,99,84,79,83,15389,2147757961,2147424713,2148007314,2147877211,2147643264,2147058678,2148259328,2147200950,297,4,13,45579
1341290377,5810,1000.7700195312500000,47.3352890014648440,674.3040161132812000,4.1559138298034670,54.0930290222168000,52,98,88,79,83,15387,2147756507,2147421449,2148007076,2147873106,2147645357,2147059236,2148265243,2147199881,3,4,13,39426
1341293977,5808,990.6900024414062000,47.4075012207031250,675.7548217773438000,4.1079058647155760,54.1029090881347660,52,99,85,81,82,15386,2147759323,2147420571,2148005732,2147876406,2147644297,2147058194,2148261449,2147200566,3399,4,13,63270
1341297577,5811,998.6699829101562000,48.2011299133300800,676.0856933593750000,4.0969519615173340,53.9951095581054700,52,99,87,78,82,15385,2147760000,2147422738,2148006674,2147875931,2147645897,2147059602,2148263570,2147202130,200,4,13,13195
1341301177,5808,989.1300048828125000,48.1872482299804700,676.9534912109375000,4.0682220458984375,54.0122604370117200,53,98,87,79,82,15387,2147757440,2147423168,2148009481,2147873124,2147640576,2147057581,2148262564,2147196662,3163,4,13,45684
1341304777,5807,995.8300170898438000,48.3114204406738300,676.8206176757812000,4.0726218223571780,53.9871597290039060,52,100,87,79,82,15382,2147759012,2147422445,2148007451,2147874358,2147645531,2147057161,2148262080,2147199625,2908,4,13,48492
1341308377,5810,1013.2700195312500000,47.5688896179199200,674.5333862304688000,4.1483230590820310,54.0621910095214840,53,101,89,79,83,15385,2147758244,2147423872,2148008457,2147874029,2147643657,2147063222,2148263177,2147198665,3586,4,13,9842
1341311977,5808,1010.0000000000000000,46.8275718688964840,672.9080200195312000,4.2020888328552250,54.1493911743164060,53,99,88,78,81,15383,2147755419,2147421275,2148010176,2147874075,2147641792,2147060790,2148261037,2147199350,3491,4,13,30933
1341315577,5810,1023.5900268554688000,46.8261795043945300,672.6517944335938000,4.2105579376220700,54.1491088867187500,53,108,88,78,83,15380,2147759570,2147420525,2148007972,2147874432,2147647049,2147061568,2148259904,2147204233,3258,4,13,33822
1341319177,5808,1017.1799926757812000,46.1384201049804700,671.1765136718750000,4.2593269348144530,54.2261314392089840,51,101,89,81,83,15380,2147761280,2147422765,2148009243,2147874102,2147644416,2147061796,2148260617,2147205750,3398,4,13,37349
1341322777,5809,1008.9299926757812000,46.3437881469726560,672.7753295898438000,4.2064738273620605,54.2201118469238300,52,98,86,79,82,15379,2147760466,2147420352,2148006582,2147872612,2147643017,2147054390,2148258724,2147204873,3369,4,13,40424
1341326377,5806,1002.8200073242188000,46.3222808837890600,672.8922119140625000,4.2026119232177730,54.2182998657226560,53,100,89,79,81,15377,2147756498,2147419254,2148007826,2147877531,2147639780,2147063524,2148259483,2147201252,242,4,13,21858
1341329977,5807,1005.1300048828125000,47.3029098510742200,674.5604248046875000,4.1474299430847170,54.0989189147949200,53,115,86,80,82,15377,2147760557,2147422281,2148010953,2147876032,2147643529,2147056210,2148259154,2147201865,3552,4,13,7161
1341333577,5807,1001.5700073242188000,47.2128486633300800,675.4063720703125000,4.1194381713867190,54.1293907165527340,53,98,94,79,82,15378,2147759158,2147421988,2148009115,2147875885,2147644041,2147055588,2148261184,2147201270,362,4,13,22595
1341337177,5810,1004.4699707031250000,47.1277618408203100,674.8115234375000000,4.1391239166259770,54.1323204040527340,53,101,86,79,82,15377,2147758619,2147424118,2148008594,2147876544,2147645933,2147060379,2148261522,2147201499,353,4,13,12496
1341340777,5808,1003.8499755859375000,47.0564994812011700,675.1198730468750000,4.1289181709289550,54.1420783996582000,52,98,89,79,81,15377,2147761216,2147420608,2148010130,2147876306,2147643922,2147057188,2148260617,2147198665,361,4,13,45710
1341344377,5810,993.5700073242188000,47.1116409301757800,675.8173828125000000,4.1058349609375000,54.1440200805664060,52,98,86,80,81,15377,2147757888,2147424676,2148008768,2147875035,2147645814,2147060598,2148260032,2147201325,434,4,13,12330
1341345061,5810,994.2600097656250000,47.4763984680175800,676.1292724609375000,4.0955100059509280,54.0980911254882800,52,99,88,78,81,15383,2147758144,2147422445,2148008420,2147878857,2147645568,2147060662,2148258322,2147201380,3057,4,13,59371
